Location: Arbon
(43.0005°N, 0.7472°E)
Time: 12:05:18
(UTC+00:00)

NOSS 3-1 (A) - Pass Details

Date: 22 April 2026
Orbit: 613 x 1593 km, 63.4° (Epoch: 10 January)

Event Time Altitude Azimuth Distance (km) Brightness Sun altitude
Rises 22:09:42 0° 322° (NW) 3,836 7.8 -29.5°
Reaches altitude 10° 22:12:07 10° 322° (NW) 3,006 7.0 -29.7°
Maximum altitude 22:19:30 81° 237° (WSW) 1,342 4.0 -30.4°
Enters shadow 22:20:42 68° 171° (S) 1,440 4.0 -30.5°
